Tracking 18816 objects as of 19-October-2017
HD Live streaming from Space Station
objects crossing your sky now

COSMOS 2440

Track COSMOS 2440 now!
COSMOS 2440 is classified as:


NORAD ID: 33108
Int'l Code: 2008-033A
Perigee: 35,756.5 km
Apogee: 35,824.5 km
Inclination: 4.8 °
Period: 1,435.9 minutes
Semi major axis: 42161 km
RCS: 10.0237 m2 (large)
Launch date: June 27, 2008
Source: Commonwealth of Independent States (former USSR) (CIS)
Launch site: TYURATAM MISSILE AND SPACE COMPLEX (TTMTR)

Cosmos 2440 is a Russian military, geostationary, early warning craft.
aabbcc
Your satellite tracking list
Your tracking list is empty





NASA's NSSDC Master Catalog

Two Line Element Set (TLE):
1 33108U 08033A   17290.91230069 -.00000134 +00000-0 +00000-0 0  9997
2 33108 004.8488 056.8623 0008072 189.3903 185.8381 01.00283353034061
Source of the keplerian elements: AFSPC